[[{"header":{"parameterUnit":"m.s-1","parameterCategory":1,"la1":30.2991,"la2":30.254,"lo1":-89.0895,"lo2":-89.0444,"dy":0.0017,"dx":0.0017,"nx":28,"ny":28,"refTime":"2025-04-22T09:00:00:Z","depth":0,"parameterNumber":2,"parameterNumberName":"U-component_of_WINDS"},"data":[0,0,0,0,0,0,0,0,0,0,0,0,0,0,0,0,0,0,0,0,0,0,0,0,0,0,0,0,0,0,0,0,0,0,0,0,0,0,0,0,0,0,0,0,0,0,0,0,0,0,0,0,0,0,0,0,0,0,-1.0991,-1.0992,0,-1.1046,-1.1046,-1.1047,-1.1045,-1.1044,-1.1043,-1.1042,-1.1101,-1.1103,-1.1105,0,0,0,0,0,0,0,0,0,0,0,0,0,-1.0887,-1.0889,-1.0991,-1.0992,-1.0993,-1.1046,-1.1046,-1.1047,-1.1045,-1.1044,-1.1043,-1.1042,-1.11,-1.1103,-1.1105,0,0,0,0,0,0,0,0,0,0,0,0,0,-1.0936,-1.089,-1.0991,-1.0998,-1.0999,-1.1046,-1.1047,-1.1047,-1.1045,-1.1044,-1.1042,-1.1041,-1.1099,-1.1102,-1.1106,-1.115,0,0,-1.1116,-1.1118,0,0,0,0,0,0,0,0,-1.0933,-1.094,-1.0996,-1.0997,-1.0999,-1.1037,-1.1031,-1.1082,-1.1045,-1.1027,-1.1042,-1.1041,-1.1081,-1.1085,-1.1098,-1.1153,-1.1156,-1.1116,-1.1119,-1.112,-1.1121,0,0,0,0,0,0,0,-1.093,-1.0938,-1.1013,-1.0997,-1.0998,-1.0999,-1.1004,-1.1041,-1.106,-1.1029,-1.1029,-1.1035,-1.1081,-1.1095,-1.11,-1.1156,-1.1116,-1.1119,-1.1122,-1.1123,-1.1251,-1.1252,0,0,0,0,0,0,-1.0925,-1.0935,-1.1011,-1.1014,-1.0962,-1.1001,-1.1008,-1.1026,-1.106,-1.1064,-1.1036,-1.1035,-1.109,-1.1096,-1.1102,-1.1156,-1.112,-1.1123,-1.1125,-1.125,-1.1251,-1.1253,0,0,0,0,0,0,-1.0922,-1.0932,-1.1009,-1.0975,-1.0984,-1.1004,-1.1025,-1.1028,-1.1042,-1.1065,-1.1069,-1.1047,-1.1089,-1.1097,-1.1138,-1.1158,-1.1125,-1.1128,-1.1248,-1.125,-1.1252,-1.1266,0,0,0,0,0,0,-1.0919,-1.0931,-1.0947,-1.0975,-1.0986,-1.1044,-1.1026,-1.103,-1.1047,-1.1046,-1.1076,-1.108,-1.1089,-1.1133,-1.1142,-1.1162,-1.1131,-1.1246,-1.1249,-1.1251,-1.1264,-1.1268,-1.1272,0,0,0,0,0,-1.0916,-1.095,-1.0948,-1.0957,-1.1007,-1.1045,-1.1051,-1.106,-1.1049,-1.1066,-1.1081,-1.1079,-1.1155,-1.1137,-1.1147,-1.1169,-1.1245,-1.1248,-1.1251,-1.1262,-1.1267,-1.1272,0,0,0,0,0,0,-1.0924,-1.0953,-1.0952,-1.0996,-1.1018,-1.1044,-1.1066,-1.1066,-1.1092,-1.109,-1.1101,-1.1108,-1.1149,-1.1163,-1.1143,-1.1214,-1.1199,-1.1204,-1.1203,-1.1209,-1.1213,-1.1208,-1.1133,0,0,0,0,0,-1.0931,-1.0959,-1.0983,-1.1019,-1.103,-1.1046,-1.1063,-1.1068,-1.1091,-1.1101,-1.1119,-1.1143,-1.1172,-1.1191,-1.1219,-1.1266,-1.1272,-1.1286,-1.129,-1.1293,-1.1297,-1.1323,-1.1329,-1.1263,-1.1263,-1.1263,0,0,-1.0946,-1.0965,-1.0982,-1.1021,-1.1039,-1.1067,-1.1054,-1.1085,-1.1107,-1.1106,-1.1146,-1.116,-1.1187,-1.1231,-1.1252,-1.1244,-1.1317,-1.1297,-1.1299,-1.1302,-1.1327,-1.1333,-1.1339,-1.1265,-1.1264,-1.1264,0,0,-1.0987,-1.1004,-1.1036,-1.1054,-1.1081,-1.1092,-1.1099,-1.1126,-1.1135,-1.1175,-1.1175,-1.1202,-1.1252,-1.1271,-1.1288,-1.1337,-1.1336,-1.1346,-1.1367,-1.1392,-1.1397,-1.1402,-1.142,-1.1426,-1.135,-1.135,-1.135,0,-1.1002,-1.1045,-1.1053,-1.1084,-1.1102,-1.1102,-1.1135,-1.1152,-1.1187,-1.1199,-1.119,-1.1253,-1.1272,-1.132,-1.1332,-1.1345,-1.1355,-1.1342,-1.1396,-1.1401,-1.1405,-1.1422,-1.1429,-1.1351,-1.1351,-1.1351,-1.1351,0,-1.1062,-1.1092,-1.1115,-1.1147,-1.1168,-1.1199,-1.1213,-1.1233,-1.1236,-1.1248,-1.1289,-1.1311,-1.1343,-1.1355,-1.1359,-1.1405,-1.1399,-1.1393,-1.1378,-1.1412,-1.1428,-1.1435,-1.1352,-1.1352,-1.1352,-1.1352,0,0,-1.111,-1.1147,-1.1156,-1.1171,-1.12,-1.1224,-1.1256,-1.1287,-1.1304,-1.1328,-1.1356,-1.1398,-1.1392,-1.1411,-1.1417,-1.1439,-1.1477,-1.143,-1.1431,-1.1438,-1.1528,-1.1533,-1.154,-1.1476,-1.1477,-1.1478,-1.1526,0,-1.1155,-1.1211,-1.1219,-1.1269,-1.1297,-1.1298,-1.1326,-1.1347,-1.1359,-1.1385,-1.1399,-1.1429,-1.1419,-1.143,-1.1452,-1.1467,-1.1495,-1.1464,-1.1502,-1.1504,-1.1495,-1.1548,-1.1553,-1.1597,-1.1532,-1.1533,-1.1534,0,-1.1214,-1.1239,-1.1291,-1.1317,-1.1329,-1.1354,-1.1384,-1.1408,-1.1433,-1.144,-1.1461,-1.1465,-1.1499,-1.1482,-1.1529,-1.1508,-1.1525,-1.1535,-1.1537,-1.154,-1.1521,-1.1554,-1.1611,-1.1618,-1.1544,-1.1543,-1.1543,0,-1.1244,-1.1291,-1.1328,-1.1341,-1.1372,-1.139,-1.1404,-1.1428,-1.1446,-1.1472,-1.1484,-1.1514,-1.153,-1.1554,-1.1566,-1.1552,-1.1613,-1.1596,-1.162,-1.162,-1.1633,-1.1632,-1.1694,-1.1643,-1.1643,-1.1643,-1.1643,0,-1.1293,-1.1325,-1.1342,-1.1365,-1.1401,-1.1411,-1.1447,-1.1461,-1.1482,-1.1508,-1.151,-1.1535,-1.1549,-1.1576,-1.1586,-1.1624,-1.1631,-1.1639,-1.1641,-1.1638,-1.1637,-1.1649,-1.1646,-1.1645,-1.1644,-1.1644,-1.1644,0,-1.1332,-1.1345,-1.1386,-1.1412,-1.1419,-1.1445,-1.1468,-1.149,-1.1502,-1.1535,-1.1544,-1.1563,-1.1595,-1.1609,-1.1648,-1.1655,-1.1698,-1.1698,-1.1689,-1.169,-1.1713,-1.1711,-1.1785,-1.1795,-1.1738,-1.1738,-1.1739,0,-1.1363,-1.1387,-1.1416,-1.1433,-1.1447,-1.1475,-1.1494,-1.1505,-1.1524,-1.1554,-1.1573,-1.1605,-1.1631,-1.1682,-1.17,-1.173,-1.1731,-1.1755,-1.1736,-1.1733,-1.1732,-1.173,-1.1733,-1.1759,-1.1759,-1.176,-1.176,0,-1.1415,-1.142,-1.1446,-1.1475,-1.1496,-1.152,-1.1542,-1.1557,-1.1571,-1.1593,-1.1625,-1.1645,-1.1685,-1.1717,-1.1748,-1.1764,-1.1765,-1.1766,-1.1773,-1.1771,-1.1765,-1.1768,-1.1699,-1.1764,-1.1764,-1.1763,-1.1763,-1.1763,-1.1451,-1.1473,-1.1496,-1.1525,-1.1543,-1.1564,-1.1587,-1.1602,-1.1628,-1.1661,-1.1666,-1.1701,-1.1726,-1.1768,-1.1784,-1.1812,-1.1806,-1.1816,-1.1819,-1.1821,-1.1823,-1.176,-1.1818,-1.1818,-1.1817,-1.1817,-1.1817,0,-1.1503,-1.1518,-1.1545,-1.1576,-1.1599,-1.1597,-1.1623,-1.1642,-1.1672,-1.1695,-1.172,-1.1757,-1.1788,-1.1808,-1.184,-1.1858,-1.1859,-1.1866,-1.1865,-1.1868,-1.1826,-1.1817,-1.1864,-1.1864,-1.1864,-1.1864,-1.1864,-1.1864,-1.1533,-1.157,-1.1578,-1.1624,-1.1639,-1.1672,-1.1687,-1.1707,-1.1725,-1.1766,-1.1791,-1.1804,-1.1826,-1.1859,-1.1887,-1.1892,-1.1904,-1.1911,-1.1916,-1.1876,-1.1871,-1.1866,-1.1858,-1.1913,-1.1913,-1.1956,-1.1956,-1.1956]},{"header":{"parameterUnit":"m.s-1","parameterCategory":1,"la1":30.2991,"la2":30.254,"lo1":-89.0895,"lo2":-89.0444,"dy":0.0017,"dx":0.0017,"nx":28,"ny":28,"refTime":"2025-04-22T09:00:00:Z","depth":0,"parameterNumber":3,"parameterNumberName":"V-component_of_WINDS"},"data":[0,0,0,0,0,0,0,0,0,0,0,0,0,0,0,0,0,0,0,0,0,0,0,0,0,0,0,0,0,0,0,0,0,0,0,0,0,0,0,0,0,0,0,0,0,0,0,0,0,0,0,0,0,0,0,0,0,0,3.6975,3.6976,0,3.7016,3.7016,3.7017,3.697,3.6968,3.6967,3.6965,3.7003,3.7006,3.7008,0,0,0,0,0,0,0,0,0,0,0,0,0,3.6855,3.6857,3.6975,3.6976,3.6976,3.7016,3.7016,3.7017,3.697,3.6968,3.6966,3.6964,3.7002,3.7005,3.7009,0,0,0,0,0,0,0,0,0,0,0,0,0,3.6902,3.6858,3.6975,3.6958,3.6957,3.7015,3.7016,3.7017,3.6971,3.6968,3.6966,3.6963,3.7001,3.7005,3.7009,3.7086,0,0,3.7021,3.7023,0,0,0,0,0,0,0,0,3.69,3.6907,3.696,3.6959,3.6958,3.6985,3.6988,3.704,3.6972,3.6965,3.6965,3.6962,3.6999,3.7003,3.7016,3.7087,3.7089,3.7021,3.7024,3.7026,3.7027,0,0,0,0,0,0,0,3.6897,3.6905,3.6991,3.6961,3.696,3.6947,3.6951,3.6997,3.6996,3.6966,3.6962,3.6968,3.6998,3.7013,3.7017,3.7089,3.7021,3.7025,3.7027,3.7029,3.7226,3.7229,0,0,0,0,0,0,3.6896,3.6902,3.699,3.6992,3.6922,3.6952,3.6956,3.6979,3.6996,3.6996,3.697,3.6966,3.7007,3.7012,3.7018,3.7109,3.7026,3.7029,3.7032,3.7223,3.7227,3.723,0,0,0,0,0,0,3.6893,3.6904,3.6988,3.6946,3.6956,3.6956,3.6983,3.6981,3.6996,3.6999,3.6998,3.6986,3.7005,3.7012,3.7069,3.711,3.7031,3.7035,3.722,3.7224,3.7228,3.7292,0,0,0,0,0,0,3.689,3.6903,3.6933,3.6948,3.6959,3.704,3.6985,3.6984,3.7003,3.6998,3.7013,3.7013,3.7004,3.7064,3.7073,3.7114,3.7038,3.7216,3.7222,3.7227,3.7286,3.7298,3.7308,0,0,0,0,0,3.6886,3.6948,3.6935,3.6945,3.6996,3.7042,3.7048,3.7037,3.7006,3.7036,3.7038,3.7013,3.7104,3.707,3.708,3.7123,3.7214,3.722,3.7227,3.7281,3.7295,3.7308,0,0,0,0,0,0,3.6936,3.695,3.6935,3.7004,3.7023,3.7034,3.7071,3.7052,3.7079,3.7073,3.7057,3.7061,3.7122,3.7128,3.709,3.7198,3.7154,3.7162,3.7192,3.7205,3.7216,3.7213,3.7041,0,0,0,0,0,3.6956,3.6994,3.7003,3.7063,3.7073,3.7071,3.709,3.708,3.7098,3.7106,3.7112,3.713,3.7162,3.7184,3.7214,3.7287,3.729,3.7321,3.7332,3.7341,3.7349,3.7388,3.7402,3.7251,3.7251,3.7251,0,0,3.6996,3.7008,3.7032,3.7073,3.7086,3.7125,3.7077,3.712,3.7148,3.7112,3.7166,3.7172,3.7191,3.7256,3.7285,3.7263,3.7391,3.7349,3.7356,3.7359,3.7396,3.741,3.7423,3.7255,3.7255,3.7254,0,0,3.7089,3.7102,3.7154,3.7168,3.719,3.7188,3.7201,3.7216,3.7218,3.7274,3.7247,3.728,3.7337,3.7351,3.7366,3.7467,3.7444,3.7477,3.7533,3.7572,3.7584,3.7594,3.763,3.7643,3.7485,3.7485,3.7485,0,3.7135,3.7193,3.7182,3.7227,3.7246,3.7217,3.7269,3.7283,3.7313,3.7326,3.7301,3.7373,3.7383,3.7452,3.7477,3.749,3.7503,3.7475,3.7583,3.7594,3.7603,3.7637,3.7651,3.7489,3.7488,3.7488,3.7487,0,3.725,3.7291,3.733,3.7361,3.7385,3.7433,3.7428,3.7453,3.7442,3.7442,3.7499,3.7511,3.7543,3.7559,3.7547,3.7627,3.7612,3.7586,3.7541,3.7622,3.7653,3.7666,3.7494,3.7493,3.7491,3.7491,0,0,3.7374,3.74,3.7415,3.7429,3.7451,3.7482,3.7529,3.7563,3.7584,3.7606,3.7645,3.7694,3.767,3.7687,3.7677,3.7711,3.7791,3.768,3.7681,3.7701,3.7879,3.7899,3.7915,3.7776,3.7779,3.7781,3.7878,0,3.7468,3.7551,3.7543,3.7622,3.7659,3.7633,3.7674,3.7691,3.7694,3.7725,3.7727,3.7763,3.7728,3.7739,3.7771,3.7774,3.7826,3.7767,3.7812,3.7814,3.7808,3.7931,3.7952,3.8043,3.789,3.7892,3.7894,0,3.7587,3.7616,3.7699,3.7716,3.7732,3.7769,3.78,3.783,3.785,3.7849,3.787,3.7854,3.7901,3.7856,3.792,3.788,3.7898,3.7902,3.7906,3.7909,3.7858,3.7938,3.8072,3.8086,3.7913,3.7912,3.791,0,3.767,3.7729,3.7786,3.7799,3.7821,3.7848,3.7858,3.7876,3.7897,3.7923,3.7936,3.7967,3.7984,3.8008,3.8001,3.7969,3.8068,3.8022,3.8068,3.8068,3.809,3.8088,3.8228,3.8101,3.8101,3.8101,3.8101,0,3.7775,3.7827,3.7824,3.7859,3.7917,3.7907,3.7964,3.797,3.7986,3.8022,3.8,3.8034,3.8023,3.8056,3.8051,3.8105,3.8113,3.8113,3.8111,3.8115,3.8115,3.8127,3.812,3.8105,3.8104,3.8103,3.8102,0,3.7877,3.7877,3.7938,3.7955,3.796,3.8002,3.8016,3.8049,3.805,3.8096,3.8106,3.8107,3.8145,3.8141,3.8183,3.818,3.8248,3.8238,3.8241,3.8239,3.8286,3.8282,3.8438,3.8458,3.8318,3.832,3.8321,0,3.7944,3.7983,3.8005,3.8029,3.8041,3.8079,3.8101,3.8092,3.8116,3.8142,3.8172,3.8209,3.8237,3.8299,3.8304,3.8336,3.8327,3.838,3.8331,3.8335,3.8328,3.8326,3.833,3.8389,3.839,3.8392,3.8393,0,3.8063,3.8061,3.8094,3.8129,3.8156,3.8181,3.8205,3.8225,3.8219,3.8246,3.8286,3.8309,3.8353,3.8389,3.842,3.8429,3.841,3.8408,3.8421,3.8425,3.8426,3.8426,3.8267,3.8404,3.8403,3.8402,3.8402,3.8401,3.8149,3.8184,3.8205,3.8243,3.826,3.8283,3.8315,3.8322,3.8355,3.8391,3.8384,3.8429,3.8448,3.8488,3.8501,3.8535,3.8516,3.8534,3.8538,3.8543,3.8549,3.8421,3.8541,3.854,3.854,3.854,3.854,0,3.8267,3.828,3.8315,3.835,3.838,3.8361,3.8386,3.8412,3.8453,3.8473,3.8502,3.8548,3.8584,3.8592,3.8626,3.8652,3.8644,3.8661,3.8659,3.8662,3.8564,3.855,3.8667,3.8667,3.8667,3.8667,3.8667,3.8667,3.8332,3.839,3.8391,3.8457,3.8469,3.8514,3.853,3.8551,3.8568,3.8621,3.8651,3.8656,3.8672,3.8707,3.8739,3.874,3.8754,3.8775,3.8773,3.8681,3.8668,3.8656,3.8643,3.8778,3.8778,3.8867,3.8868,3.8869]}]]